Location: Kerentrech
(47.7567°N, 3.3595°W)
Time: 04:50:50
(UTC+00:00)

Daily predictions for brighter satellites

Satellite Brightness Start Highest point End
(mag) Time Altitude Azimuth Time Altitude Azimuth Time Altitude Azimuth
USA 215 4.2 03:15:47 10° NE 03:19:59 43° NE 03:19:59 43° NE
CZ-4C R/B 3.9 03:29:40 30° NE 03:29:40 30° NE 03:32:48 10° NE
Cosmos 2333 Rocket 4.2 03:31:49 22° NNE 03:31:49 22° NNE 03:33:46 10° NNE
NOSS 3-1 (A) 4.3 03:39:16 58° NNE 03:40:14 62° NE 03:48:37 10° SE
ATLAS CENTAUR R/B 4.1 03:43:09 19° ENE 03:43:09 19° ENE 03:44:54 10° ENE
IDEFIX/ARIANE 42P 4.3 03:48:11 10° NNE 03:50:26 26° NNE 03:50:26 26° NNE
Cosmos 2237 Rocket 3.2 04:03:02 40° NNE 04:03:02 40° NNE 04:06:34 10° NNE
Cosmos 2219 Rocket 3.9 04:14:45 23° N 04:14:45 23° N 04:17:19 10° NNE
Cosmos 2360 Rocket 4.4 04:26:01 13° NNW 04:26:01 13° NNW 04:27:17 10° N
Nadezhda 3 Rocket 4.3 04:25:58 55° NNW 04:25:58 55° NNW 04:31:02 10° N
ADEOS 3.8 04:20:32 10° NNE 04:25:00 64° NE 04:25:00 64° NE
COSMOS 2428 4.3 04:28:26 23° NNW 04:28:26 23° NNW 04:31:23 10° NNE
Meteor 2-10 Rocket 3.9 04:27:19 54° SE 04:28:13 63° E 04:33:22 10° NNE
Cosmos 1943 Rocket 3.0 04:31:14 15° NNW 04:35:36 47° NE 04:40:54 10° SE
Cosmos 2297 4.0 04:37:32 54° S 04:37:32 54° S 04:41:51 10° SSE
NOSS 3-1 (C) 4.0 04:36:43 57° WSW 04:37:21 58° WSW 04:45:44 10° SSE
Lacrosse 5 2.2 04:38:34 56° N 04:39:00 58° NNE 04:44:00 10° ESE
SL-16 R/B 2.2 04:41:35 60° S 04:42:39 81° ESE 04:48:22 10° NNE
Cosmos 292 Rocket 3.8 04:43:28 75° ESE 04:43:28 75° ESE 04:47:53 10° SSE
CZ-2C R/B 2.4 04:41:49 10° NNE 04:47:04 89° W 04:47:46 68° SSW
Cosmos 1980 4.5 04:51:20 36° NNW 04:51:20 36° NNW 04:55:45 10° NNE
Cosmos 2369 Rocket 2.9 04:50:33 10° NNW 04:56:10 54° ENE 05:01:45 10° SE
Cosmos 1535 Rocket 4.5 04:54:11 10° NNW 05:00:17 55° W 05:06:15 10° SSW
NOSS 2-1 (E) 3.5 05:01:57 57° NE 05:01:57 57° NE 05:05:05 10° NE
Cosmos 1500 Rocket 4.4 04:57:00 10° N 05:01:22 50° ENE 05:05:38 10° SSE
Okean O Rocket 4.5 04:59:26 10° NE 05:02:26 18° E 05:05:25 10° SE
USA 215 3.9 04:58:45 10° ENE 05:04:49 42° N 05:07:21 30° NW
Meteor 2-3 Rocket 3.8 04:59:32 10° N 05:05:19 81° ENE 05:11:06 10° SSE
BREEZE-M DEB (TANK) 3.8 05:04:51 59° SW 05:05:38 80° SSE 05:15:09 10° ENE
Meteor PRIRODA 4.2 05:07:10 10° NNE 05:10:50 59° E 05:14:07 12° S
Cosmos 1743 Rocket 3.7 05:08:30 10° N 05:12:51 71° E 05:17:09 10° SSE
Cosmos 2333 Rocket 4.0 05:13:49 16° NNW 05:13:49 16° NNW 05:16:57 10° N
CZ-4C R/B 3.1 05:14:51 31° NW 05:15:53 33° NNW 05:21:38 10° NE
Cosmos 1484 Rocket 2.9 05:12:10 10° NNE 05:16:07 76° ESE 05:20:05 10° S
BREEZE M DEB (TANK) 4.3 05:08:49 24° WNW 05:16:33 49° SW 05:21:06 10° SSE
STARLINK-1129 4.2 05:17:57 32° N 05:17:57 32° N 05:20:29 10° ENE
CZ-4B R/B 2.5 05:13:53 10° NNE 05:17:38 85° WNW 05:18:23 55° SSW
STARLINK-1134 4.2 05:19:36 32° N 05:19:36 32° N 05:22:12 10° ENE
ATLAS CENTAUR R/B 1.8 05:19:22 49° WNW 05:19:52 51° NW 05:24:14 10° NNE
ALOS 2.9 05:15:20 10° NNE 05:19:57 57° E 05:24:33 10° S
STARLINK-1135 4.2 05:21:47 32° N 05:21:47 32° N 05:24:29 10° ENE
STARLINK-1150 4.5 05:23:03 23° NNE 05:23:03 23° NNE 05:24:45 10° NE
H-2A R/B 2.5 05:18:15 10° N 05:22:35 68° WNW 05:25:10 24° SSW
STARLINK-1163 4.4 05:24:05 24° NNE 05:24:05 24° NNE 05:25:50 10° NE
STARLINK-1141 4.1 05:23:49 32° N 05:23:49 32° N 05:26:35 10° ENE
USA 229 DEB 4.5 05:23:20 31° WSW 05:23:59 31° WSW 05:30:23 10° S
USA 229 4.5 05:23:24 31° WSW 05:24:05 31° WSW 05:30:30 10° S
STARLINK-1173 4.4 05:25:53 24° NNE 05:25:53 24° NNE 05:27:43 10° NE
STARLINK-1140 4.1 05:25:39 32° N 05:25:39 32° N 05:28:31 10° ENE
STARLINK-1177 4.3 05:26:26 24° NNE 05:26:26 24° NNE 05:28:19 10° NE
Cosmos 1842 Rocket 3.5 05:22:15 10° SSW 05:26:43 81° W 05:31:14 10° N
STARLINK-1167 4.3 05:27:50 25° NNE 05:27:50 25° NNE 05:29:47 10° NE
STARLINK-1156 4.1 05:27:35 32° N 05:27:36 32° N 05:30:32 10° ENE
PSLV R/B 4.0 05:24:37 10° NNE 05:28:20 67° ESE 05:32:05 10° S
STARLINK-1148 4.1 05:29:30 32° NNW 05:29:37 32° N 05:32:33 10° ENE
NOSS 3-1 (A) 4.4 05:26:46 23° WNW 05:31:12 43° WSW 05:39:12 10° S
STARLINK-1158 4.1 05:31:27 31° NNW 05:31:39 32° N 05:34:35 10° ENE
STARLINK-1136 4.2 05:32:38 25° N 05:32:38 25° N 05:34:45 10° NE
IDEFIX/ARIANE 42P 4.2 05:28:58 10° NNW 05:31:15 17° NW 05:31:15 17° NW
Cosmos 1633 3.5 05:30:30 10° N 05:34:03 48° ENE 05:37:35 10° SSE
Meteor 1-27 4.1 05:29:10 10° S 05:34:44 87° WNW 05:40:20 10° N
Cosmos 1356 Rocket 3.7 05:34:33 40° W 05:34:44 41° WNW 05:38:38 10° N
Aureole 2 Rocket 2.4 05:37:36 19° NNW 05:39:36 64° ENE 05:42:41 10° SSE
COSMO-SKYMED 1 2.5 05:38:08 10° S 05:42:25 59° WSW 05:46:44 10° NNW
Meteor 1-31 Rocket 3.3 05:40:03 10° N 05:43:31 34° WNW 05:43:49 34° W
Cosmos 2251 Rocket 4.0 05:41:43 27° WSW 05:43:52 38° WNW 05:48:49 10° N
Cosmos 2237 Rocket 3.6 05:44:52 19° NW 05:45:50 20° NW 05:49:51 10° N
Cosmos 921 Rocket 3.1 05:43:26 10° NNW 05:47:56 82° ENE 05:52:18 10° SSE
USA 116 3.1 05:45:09 10° SSE 05:48:23 89° NE 05:51:29 10° NNW
BREEZE-M DEB (TANK) 4.0 05:54:48 21° WNW 05:58:06 76° SSW 06:14:58 10° ESE
Cosmos 2221 2.6 05:54:12 10° SSW 05:58:19 49° WNW 06:02:31 10° N
STARLINK-1170 4.1 05:57:36 21° NNW 05:58:25 24° N 06:00:41 10° ENE
GEOS 3 Rocket 4.0 05:53:23 10° NNE 05:58:27 48° NW 06:02:34 16° WSW
SJ-12 4.0 05:55:02 10° N 05:59:05 57° WNW 06:03:08 10° SSW
NOSS 2-1 (C) 4.3 05:59:47 22° WNW 06:00:53 26° NW 06:04:16 10° NNE
Cosmos 1869 3.2 05:58:03 10° SSW 06:02:02 67° W 06:06:00 10° N
Cosmos 2016 Rocket 4.1 05:58:39 10° N 06:04:55 85° E 06:11:13 10° S
NOSS 2-1 (D) 4.4 06:03:45 20° WNW 06:04:59 25° NNW 06:08:17 10° NNE
ATLAS 2AS CENTAUR R/B 4.1 05:59:37 10° NW 06:06:46 37° NNE 06:13:25 10° E
MOS 1-B 4.3 06:02:23 10° NNE 06:08:12 73° WNW 06:13:59 10° SSW
METEOR-M 4.2 06:04:25 10° N 06:09:41 59° WNW 06:14:54 10° SSW
Helios 1A Rocket 3.8 06:05:49 10° NNE 06:09:54 54° E 06:13:57 10° S
STARLINK-1162 4.2 06:13:05 15° NW 06:15:07 30° N 06:17:56 10° ENE
STARLINK-1157 4.2 06:14:44 15° NW 06:16:50 30° N 06:19:39 10° ENE
Cosmos 1238 Rocket 3.8 06:12:00 10° NNW 06:18:21 75° W 06:23:46 10° S
STARLINK-1159 4.2 06:16:42 14° NW 06:18:54 30° N 06:21:44 10° ENE
Cosmos 1943 Rocket 2.9 06:14:23 10° NW 06:19:08 31° WSW 06:23:53 10° SSW
STARLINK-1179 4.0 06:18:16 14° NW 06:19:55 24° N 06:22:08 10° ENE
STARLINK-1176 4.0 06:18:51 14° NW 06:20:32 25° N 06:22:44 10° ENE
STARLINK-1171 4.2 06:18:31 14° NW 06:20:48 30° N 06:23:38 10° ENE
Cosmos 1023 Rocket 4.5 06:15:32 10° SSW 06:20:49 81° WNW 06:26:09 10° NNE
Lacrosse 5 2.5 06:17:47 13° WNW 06:21:51 37° SW 06:26:28 10° SSE
STARLINK-1155 4.2 06:20:19 13° NW 06:22:41 30° N 06:25:32 10° ENE
STARLINK-1153 4.1 06:21:21 13° NW 06:23:32 28° N 06:26:10 10° ENE
STARLINK-1180 4.1 06:21:34 13° NW 06:23:47 28° N 06:26:24 10° ENE
STARLINK-1174 4.1 06:22:03 13° NW 06:24:15 28° N 06:26:53 10° ENE
STARLINK-1139 4.1 06:22:16 13° NW 06:24:29 28° N 06:27:07 10° ENE
CZ-2C R/B 4.1 06:21:32 10° NNW 06:24:32 16° NW 06:27:09 11° W
STARLINK-1133 4.1 06:22:26 13° NW 06:24:40 28° N 06:27:18 10° ENE
STARLINK-1166 4.2 06:22:22 13° NW 06:24:49 30° N 06:27:40 10° ENE
STARLINK-1151 4.1 06:22:41 12° NW 06:24:56 28° N 06:27:33 10° ENE
STARLINK-1160 4.1 06:23:20 12° NW 06:25:36 28° N 06:28:13 10° ENE
STARLINK-1161 4.1 06:23:32 12° NW 06:25:49 29° N 06:28:26 10° ENE
STARLINK-1145 4.1 06:23:46 12° NW 06:26:03 29° N 06:28:40 10° ENE
STARLINK-1172 4.1 06:23:57 12° NW 06:26:15 29° N 06:28:52 10° ENE
STARLINK-1165 4.2 06:24:06 12° WNW 06:26:39 31° N 06:29:30 10° ENE
STARLINK-1182 4.1 06:24:25 12° NW 06:26:45 29° N 06:29:22 10° ENE
STARLINK-1164 4.1 06:24:38 12° NW 06:26:58 29° N 06:29:35 10° ENE
STARLINK-1168 4.1 06:24:49 12° NW 06:27:10 29° N 06:29:47 10° ENE
SL-16 R/B 3.4 06:23:30 12° W 06:27:28 23° NW 06:31:54 10° N
STARLINK-1183 4.1 06:25:29 12° NW 06:27:51 29° N 06:30:29 10° ENE
STARLINK-1181 4.1 06:25:41 12° NW 06:28:04 29° N 06:30:42 10° ENE
STARLINK-1169 4.2 06:25:57 11° WNW 06:28:34 31° N 06:31:26 10° ENE
STARLINK-1196 4.1 06:26:21 11° NW 06:28:46 29° N 06:31:23 10° ENE
STARLINK-1186 4.1 06:26:47 11° NW 06:29:13 29° N 06:31:51 10° ENE
ADEOS Rocket 3.2 06:23:18 10° S 06:29:25 69° WSW 06:36:20 10° NNW
STARLINK-1185 4.1 06:27:00 11° NW 06:29:27 29° N 06:32:05 10° ENE
STARLINK-1175 4.1 06:27:14 11° NW 06:29:41 29° N 06:32:19 10° ENE
STARLINK-1147 4.1 06:27:25 11° NW 06:29:53 29° N 06:32:31 10° ENE
STARLINK-1146 4.1 06:27:38 11° NW 06:30:07 29° N 06:32:45 10° ENE
STARLINK-1152 4.1 06:27:51 11° NW 06:30:19 29° N 06:32:57 10° ENE
STARLINK-1178 4.2 06:27:48 11° WNW 06:30:31 31° N 06:33:22 10° ENE
STARLINK-1195 4.1 06:28:04 11° NW 06:30:34 29° N 06:33:11 10° ENE
STARLINK-1137 4.1 06:28:19 11° NW 06:30:49 29° N 06:33:27 10° ENE
STARLINK-1142 4.1 06:28:32 11° NW 06:31:02 29° N 06:33:40 10° ENE
STARLINK-1127 4.1 06:28:43 11° NW 06:31:14 29° N 06:33:52 10° ENE
Cosmos 1805 Rocket 3.9 06:27:13 10° NNW 06:31:19 41° W 06:35:22 10° SSW
STARLINK-1184 4.1 06:28:58 11° NW 06:31:29 29° N 06:34:07 10° ENE
STARLINK-1193 4.1 06:29:11 11° NW 06:31:43 29° N 06:34:21 10° ENE
Cosmos 1954 Rocket 4.1 06:26:26 10° SSW 06:31:45 86° ESE 06:37:07 10° NNE
STARLINK-1194 4.1 06:29:22 11° NW 06:31:55 29° N 06:34:33 10° ENE
STARLINK-1120 4.2 06:29:33 11° WNW 06:32:21 31° N 06:35:13 10° ENE
Cosmos 1862 3.3 06:29:58 10° NNW 06:33:52 57° W 06:37:44 10° S
Cosmos 2173 Rocket 4.3 06:28:05 10° NNW 06:33:58 43° W 06:39:46 10° SSW
Cosmos 407 Rocket 3.8 06:29:01 10° SW 06:34:11 49° WNW 06:39:21 10° NNE
STARLINK-1131 4.1 06:31:36 10° WNW 06:34:28 31° N 06:37:21 10° ENE
TELKOM 3 3.3 06:33:40 12° WNW 06:35:28 44° N 06:37:33 10° E
H-2A R/B 2.7 06:31:51 10° NNE 06:35:39 88° ESE 06:39:22 10° SSW
STARLINK-1190 4.1 06:33:26 10° WNW 06:36:20 32° N 06:39:13 10° ENE
Cosmos 482 Debris 3.1 06:35:27 13° W 06:36:53 38° SSW 06:38:40 10° SE
FENGYUN 3A 4.2 06:32:35 10° N 06:37:30 36° WNW 06:42:25 10° SW
Sich 1 3.2 06:34:20 10° NNW 06:38:28 47° W 06:42:34 10° SSW
Okean O Rocket 1.7 06:34:50 10° N 06:39:07 52° WNW 06:43:20 10° SSW
Cosmos 2369 Rocket 3.1 06:35:06 10° NW 06:39:53 28° WSW 06:44:39 10° SSW
Cosmos 1140 Rocket 3.6 06:35:43 10° SW 06:40:53 58° WNW 06:46:05 10° NNE
COSMOS 2455 4.5 06:36:57 10° NNW 06:42:12 30° NE 06:47:26 10° E
Cosmos 1603 4.1 06:37:33 10° SW 06:43:02 45° NW 06:48:29 10° NNE
STARLINK-1070 2.9 06:43:32 10° SW 06:46:27 75° SSE 06:49:22 10° ENE
USA 215 4.0 06:40:57 10° E 06:47:03 43° N 06:53:09 10° WNW
STARLINK-1124 2.7 06:44:21 10° WSW 06:47:17 89° ESE 06:50:13 10° ENE
STARLINK-1066 2.8 06:44:41 10° SW 06:47:36 77° SSE 06:50:32 10° ENE
STARLINK-1081 2.8 06:44:55 10° WSW 06:47:50 77° SSE 06:50:46 10° ENE
STARLINK-1069 2.8 06:45:22 10° WSW 06:48:16 78° SSE 06:51:13 10° ENE
STARLINK-1085 2.8 06:45:34 10° WSW 06:48:29 78° SSE 06:51:25 10° ENE
STARLINK-1086 2.8 06:45:48 10° WSW 06:48:43 78° SSE 06:51:39 10° ENE
STARLINK-1095 2.8 06:46:02 10° WSW 06:48:57 79° SSE 06:51:53 10° ENE
STARLINK-1098 4.2 06:45:14 10° SW 06:49:07 56° SE 06:53:01 10° ENE
STARLINK-1077 2.8 06:46:16 10° WSW 06:49:11 79° SSE 06:52:07 10° ENE
STARLINK-1075 2.8 06:46:30 10° WSW 06:49:25 80° SSE 06:52:21 10° ENE
STARLINK-1093 2.8 06:46:42 10° WSW 06:49:37 80° SSE 06:52:34 10° ENE
STARLINK-1074 2.8 06:46:56 10° WSW 06:49:51 80° SSE 06:52:47 10° ENE
Cosmos 1943 3.4 06:44:39 10° SW 06:50:05 49° NW 06:55:34 10° NNE
